DELTA 1 DEB, 21276

Orbit data source: Space-Track

DELTA 1 DEB, 21276 is space debris in SSO originally from a launch on Thu, 12 Jun 1975 UTC launched from the Air Force Western Test Range (AFWTR). Debris objects in space refer to the collection of defunct objects orbiting the Earth. Examples of debris include non-operational satellites, rocket bodies, and fragments generated from explosions, collisions, or faulty payload assembly.

Loading next visibility...
Identifier
21276, 1975-052M
Orbit
SSO
Country
Flag of USUS
Related business
Manufacturer
Unknown
Mission
Spacecraft
Bus & Motor
Unknown
Mass
Unknown
Launch date (UTC)
1975-06-12 (51 years ago)
Launch vehicle
Unknown
Launch site
Air Force Western Test Range (AFWTR)
Object type
Payload
Rocket body
Debris
Shape & HBR
Unknown shape, 1.2 m
Radar Cross Section
Large (>1 m²)

Expand to show TLE details & history
Last TLE update: 2 days ago

TLE from 2 days ago
0 DELTA 1 DEB
1 21276U 75052M   26171.35748507 -.00000003  00000-0  79630-4 0  9996
2 21276 100.0073  70.5460 0046848  99.9230  17.1781 13.35579359712156
Epoch: 2026-06-20T08:34Z
TLE epoch observation values (Epoch: 2026-06-20T08:34:46.710Z)
Latitude
61.18614°
Longitude
-128.11047°
Altitude
1,102.569 km
Speed
7.323 km/s
True Right ascension
17h 56m 37s
True Declination
61° 02' 51"
Sunlit
Object was in daylight at epoch
Visualization orbit readout
Latitude
Unknown
Longitude
Unknown
Altitude
Unknown
Speed
Unknown
Apparent Right ascension
Unknown
Apparent Declination
Unknown
Sunlit
N/A
Visualization observer readout
Local Sidereal Time
07:40:41
Azimuth
Unknown
Elevation
Unknown
Doppler factor
Unknown
Orbital elements
Apogee altitude
1,158.27 km
Perigee altitude
1,087.986 km
Semi-major axis
7,501.265 km
Eccentricity
0.00468
Inclination
100.0073°
RAAN
70.546°
Arg. of periapsis
99.923°
True anomaly
17.33754°
Mean anomaly
17.1781°
Eccentric anomaly
17.25773°
Mean motion
3.34073 °/min
Orbital period
107.76 mins
BSTAR
0.00007963
Loading maneuver chart data...
Computing Atmospheric mass density...
Loading historical data...
Loading historical data...
Loading historical data...
Loading historical data...
Loading historical data...
Loading historical data...
Loading historical data...

Documentation

Showing up to 5 results
|